Flag for Germany Weather past 2 weeks in Stade, Lower Saxony, Germany

Now
66 °F

Passing clouds.


Feels Like: 66 °F
Forecast: 55 / 79 °F
Wind: 7 mph from Northwest

Location: Hamburg-Finkenwerder

Current Time: Jun 30, 2015 at 11:00:33 AM

Latest Report: Jun 30, 2015 at 10:20 AM


Visibility: N/A

Pressure: 30.21 "Hg

Humidity: 73%

Dew point: 57 °F

Location of StadeLocation

Historic Weather in Stade — Graph

°F

Stade temperature yesterday

Maximum temperature yesterday: 75 °F (at 3:50 PM)
Minimum temperature yesterday: 61 °F (at 6:20 AM)
Average temperature yesterday: 69 °F

Past Weeks' High & Low Weather Summary

 TemperatureHumidityPressure
High75 °F (Jun 29, 3:50 PM)100% (Jun 17, 7:20 AM)30.24 "Hg (Jun 17, 7:20 AM)
Low46 °F (Jun 17, 6:20 AM)45% (Jun 16, 12:20 PM)29.68 "Hg (Jun 22, 2:50 PM)
Average61 °F74%30.01 "Hg
* Reported Jun 15 9:20 AM — Jun 30 9:50 AM, Stade, Weather by CustomWeather, © 2015

Note: Actual official high and low records may vary slightly from our data, if they occured in-between our weather recording intervals... More about our weather records

Advertising

Stade weather history for previous 24 hours

 ConditionsComfort  
Time TempWeatherWind HumidityBarometerVisibility
9:50 AM
Tue, Jun 30
66 °FPassing clouds.7 mph73%30.21 "HgN/A
9:20 AM64 °FPassing clouds.7 mph83%30.21 "HgN/A
8:50 AM63 °FPassing clouds.6 mph83%30.21 "HgN/A
8:20 AM63 °FPassing clouds.5 mph88%30.21 "HgN/A
7:50 AM61 °FPassing clouds.5 mph94%30.18 "HgN/A
7:20 AM59 °FSunny.3 mph94%30.18 "Hg10 mi
6:50 AM57 °FSunny.3 mph100%30.18 "Hg10 mi
6:20 AM54 °FSunny.3 mph100%30.18 "Hg10 mi
5:50 AM54 °FClear.5 mph100%30.18 "Hg10 mi
9:50 PM
Mon, Jun 29
64 °FPassing clouds.8 mph73%30.15 "HgN/A
9:20 PM66 °FSunny.10 mph68%30.15 "Hg10 mi
8:50 PM68 °FSunny.9 mph64%30.15 "Hg10 mi
8:20 PM68 °FPassing clouds.10 mph60%30.15 "HgN/A
7:50 PM70 °FSunny.12 mph57%30.15 "Hg10 mi
7:20 PM70 °FSunny.12 mph57%30.12 "Hg10 mi
6:50 PM72 °FSunny.12 mph57%30.12 "Hg10 mi
6:20 PM73 °FPassing clouds.10 mph50%30.12 "HgN/A
5:50 PM73 °FPassing clouds.12 mph53%30.12 "HgN/A
5:20 PM73 °FPassing clouds.12 mph57%30.12 "HgN/A
4:50 PM73 °FPassing clouds.12 mph61%30.12 "HgN/A
4:20 PM75 °FScattered clouds.12 mph54%30.12 "HgN/A
3:50 PM75 °FScattered clouds.13 mph54%30.12 "HgN/A
3:20 PM73 °FScattered clouds.12 mph53%30.09 "HgN/A
2:50 PM73 °FScattered clouds.12 mph61%30.09 "HgN/A
2:20 PM73 °FPassing clouds.12 mph53%30.09 "HgN/A
1:50 PM73 °FScattered clouds.10 mph57%30.09 "HgN/A
1:20 PM72 °FScattered clouds.9 mph61%30.09 "HgN/A
12:50 PM72 °FScattered clouds.9 mph61%30.09 "HgN/A
12:20 PM72 °FScattered clouds.9 mph61%30.09 "HgN/A
11:50 AM72 °FScattered clouds.9 mph61%30.09 "HgN/A
11:20 AM70 °FPassing clouds.9 mph69%30.09 "HgN/A
Weather by CustomWeather, © 2015

See weather overviewHow to use our weather pages